Starlink 1767

operational
NORAD ID: 46345 Int'l Des: 2020-062 Owner: SPXS Country: US Constellation: starlink
LEOCIRCULAR

About Starlink 1767

Description loading...

Live Position

Loading 3D Globe...

Upcoming Passes

Altitude History

Altitude vs Time

uPlot chart will show altitude changes over time

Two-Line Element Set

1 46345U 20062W 25351.00003472 .00238467 00000-0 21699-2 0 9993
2 46345 53.0409 347.7229 0003691 42.1813 223.2378 15.66669929 5996
Epoch: Dec 17, 2025 • Age: 5 hours

Current Status

Altitude 388.3 km
Velocity 7.68 km/s
Sub-Earth Point -52.52°S, 89.38°E
Launch Date Sep 3, 2020
Age 5.2 years
Type internet

Technical Details

Classification Payload
Mass 260.00 kg
Dry Mass 248.00 kg
Total Mass 260.00 kg
Length 0.20 m
Diameter 2.80 m
Span 9.00 m
Shape Box + pan
Manufacturer SPXS
Bus Type Starlink
Phase Status In Orbit
Owner/State SPXS/US

Large Constellations

Loading constellations...